{"data":{"norad_id":67103,"intl_designator":"2025-299B","name":"STARLINK-36256","alt_names":[],"object_type":"PAYLOAD","status":"ACTIVE","operator":null,"country":"US","launch_date":"2025-12-15","launch_site_code":"AFETR","launch_vehicle":null,"mission":null,"orbit_class":"UNKNOWN","rcs_meters":null,"size_class":null,"mass_kg":null,"dimensions":null,"purposes":["comms"],"wikipedia_slug":null,"has_3d_model":false,"image_url":null,"decayed_at":null,"tle_current":{"epoch":"2026-05-24T23:31:49.577952Z","epoch_age_seconds":70582,"freshness":"FRESH","line1":"1 67103U 25299B   26144.98043493  .00015436  00000+0  56903-3 0  9995","line2":"2 67103  43.0028  98.1722 0001142 264.3059  95.7662 15.27594734 24785","mean_motion":15.27594734,"eccentricity":0.0001142,"inclination_deg":43.0028,"raan_deg":98.1722,"arg_perigee_deg":264.3059,"mean_anomaly_deg":95.7662,"bstar":0.00056903,"rev_number":2478,"period_min":94.265839489337,"perigee_km":482.22143508391,"apogee_km":483.78851991157,"semimajor_km":6861.1419774977,"source":"CELESTRAK","updated_at":"2026-05-25T13:38:21.472541Z"}}}